Location: Unspecified
(32.5099°N, 80.0190°W)
Time: 07:15:45
(UTC-05:00)

CZ-3 Stage 3 - Visible Passes

Search period start: 21 November 2017 00:00
Search period end: 01 December 2017 00:00
Orbit: 416 x 34781 km, 31.0° (Epoch: 20 November)

Date Brightness Start Highest point End Pass type
(mag) Time Alt. Az. Time Alt. Az. Time Alt. Az.
22 Nov 4.0 03:50:45 65° SE 03:50:45 65° SE 04:13:42 10° ESE visible
23 Nov 6.0 20:21:16 10° SSW 20:30:04 14° S 20:31:12 14° S visible
25 Nov 4.2 03:41:56 59° SE 03:41:56 59° SE 04:04:00 10° ESE visible
26 Nov 5.9 20:10:44 10° SSW 20:21:00 15° S 20:22:26 15° SSE visible
28 Nov 4.4 03:33:07 54° SE 03:33:07 54° SE 03:54:17 10° ESE visible
29 Nov 5.7 20:00:15 10° SSW 20:11:54 17° S 20:13:38 16° SSE visible
